| time (UTC) | temp F | wind direction | speed MPH | gust MPH | rain 1hr in | rain 24hr in | rain mn in | humidity % | barometer mb |
| 20260507001526 | 63 | 245 | 0.0 | 2.0 | 0.01 | 0.01 | 0.01 | 82 | 1015.2 |
| 20260507000516 | 63 | 218 | 1.0 | 3.0 | 0.00 | 0.00 | 0.00 | 80 | 1015.1 |
| 20260506235607 | 64 | 147 | 1.0 | 3.0 | 0.00 | 0.00 | 0.00 | 77 | 1015.0 |
| 20260506234637 | 64 | 290 | 0.0 | 1.0 | 0.00 | 0.00 | 0.00 | 74 | 1014.9 |
| 20260506233607 | 65 | 246 | 0.0 | 1.0 | 0.00 | 0.00 | 0.00 | 72 | 1015.0 |
| 20260506232537 | 65 | 217 | 2.0 | 4.0 | 0.00 | 0.00 | 0.00 | 71 | 1015.1 |
| 20260506231547 | 65 | 227 | 1.0 | 3.0 | 0.00 | 0.00 | 0.00 | 69 | 1015.2 |
| 20260506230517 | 65 | 225 | 1.0 | 4.0 | 0.00 | 0.00 | 0.00 | 68 | 1015.0 |
| 20260506225608 | 65 | 252 | 3.0 | 8.0 | 0.00 | 0.00 | 0.00 | 68 | 1015.0 |
| 20260506224600 | 65 | 256 | 2.0 | 8.0 | 0.00 | 0.00 | 0.00 | 68 | 1015.0 |
| 20260506223608 | 65 | 227 | 3.0 | 7.0 | 0.00 | 0.00 | 0.00 | 69 | 1015.0 |
| 20260506222538 | 66 | 222 | 3.0 | 4.0 | 0.00 | 0.00 | 0.00 | 69 | 1014.9 |
| 20260506221528 | 65 | 219 | 4.0 | 8.0 | 0.00 | 0.00 | 0.00 | 71 | 1015.0 |
| 20260506220517 | 65 | 259 | 3.0 | 11.0 | 0.00 | 0.00 | 0.00 | 74 | 1015.0 |
| 20260506215610 | 65 | 196 | 6.0 | 9.0 | 0.00 | 0.00 | 0.00 | 76 | 1015.1 |
| 20260506214559 | 65 | 185 | 6.0 | 9.0 | 0.00 | 0.00 | 0.00 | 76 | 1015.1 |
| 20260506213549 | 65 | 165 | 6.0 | 10.0 | 0.00 | 0.00 | 0.00 | 76 | 1015.2 |
| 20260506212539 | 65 | 200 | 7.0 | 15.0 | 0.00 | 0.00 | 0.00 | 76 | 1015.2 |
| 20260506211529 | 65 | 210 | 6.0 | 15.0 | 0.00 | 0.00 | 0.00 | 76 | 1015.1 |
| 20260506210539 | 65 | 193 | 6.0 | 17.0 | 0.00 | 0.00 | 0.00 | 76 | 1015.0 |
| 20260506205611 | 65 | 216 | 7.0 | 14.0 | 0.00 | 0.00 | 0.00 | 77 | 1014.8 |
| 20260506204600 | 65 | 195 | 6.0 | 14.0 | 0.00 | 0.00 | 0.00 | 77 | 1014.7 |
| 20260506203550 | 65 | 195 | 7.0 | 11.0 | 0.00 | 0.00 | 0.00 | 77 | 1014.7 |
| 20260506202540 | 65 | 185 | 6.0 | 11.0 | 0.00 | 0.00 | 0.00 | 77 | 1014.7 |
| 20260506201550 | 64 | 186 | 7.0 | 10.0 | 0.00 | 0.00 | 0.00 | 77 | 1014.5 |
| 20260506200520 | 65 | 179 | 4.0 | 13.0 | 0.00 | 0.00 | 0.00 | 77 | 1014.5 |
| 20260506195631 | 65 | 194 | 4.0 | 10.0 | 0.00 | 0.00 | 0.00 | 77 | 1014.3 |
| 20260506194601 | 65 | 173 | 6.0 | 11.0 | 0.00 | 0.00 | 0.00 | 76 | 1014.2 |
| 20260506193551 | 65 | 191 | 4.0 | 9.0 | 0.00 | 0.00 | 0.00 | 76 | 1014.0 |
| 20260506192541 | 65 | 209 | 5.0 | 13.0 | 0.00 | 0.00 | 0.00 | 76 | 1013.9 |
| 20260506191551 | 65 | 167 | 6.0 | 11.0 | 0.00 | 0.00 | 0.00 | 76 | 1014.0 |
| 20260506190521 | 66 | 180 | 7.0 | 13.0 | 0.00 | 0.00 | 0.00 | 76 | 1013.9 |
| 20260506185612 | 66 | 159 | 4.0 | 10.0 | 0.00 | 0.00 | 0.00 | 76 | 1013.8 |
| 20260506184602 | 66 | 191 | 5.0 | 13.0 | 0.00 | 0.00 | 0.00 | 76 | 1013.8 |
| 20260506183552 | 66 | 168 | 5.0 | 11.0 | 0.00 | 0.00 | 0.00 | 75 | 1014.0 |
| 20260506182542 | 66 | 148 | 6.0 | 11.0 | 0.00 | 0.00 | 0.00 | 75 | 1013.9 |
| 20260506181532 | 66 | 157 | 9.0 | 16.0 | 0.00 | 0.00 | 0.00 | 75 | 1013.9 |
| 20260506180522 | 66 | 171 | 5.0 | 14.0 | 0.00 | 0.00 | 0.00 | 75 | 1013.9 |
| 20260506175613 | 67 | 160 | 6.0 | 14.0 | 0.00 | 0.00 | 0.00 | 74 | 1013.8 |
| 20260506174604 | 67 | 173 | 5.0 | 13.0 | 0.00 | 0.00 | 0.00 | 73 | 1013.9 |
| 20260506173613 | 67 | 163 | 7.0 | 15.0 | 0.00 | 0.00 | 0.00 | 73 | 1013.8 |
| 20260506172543 | 68 | 202 | 5.0 | 10.0 | 0.00 | 0.00 | 0.00 | 73 | 1013.9 |
| 20260506171533 | 68 | 177 | 6.0 | 10.0 | 0.00 | 0.00 | 0.00 | 72 | 1013.9 |
| 20260506170523 | 68 | 169 | 4.0 | 10.0 | 0.00 | 0.00 | 0.00 | 71 | 1013.9 |
| 20260506165614 | 69 | 132 | 4.0 | 10.0 | 0.00 | 0.00 | 0.00 | 70 | 1013.8 |
| 20260506164604 | 69 | 180 | 7.0 | 14.0 | 0.00 | 0.00 | 0.00 | 69 | 1013.8 |
| 20260506163554 | 70 | 206 | 5.0 | 11.0 | 0.00 | 0.00 | 0.00 | 67 | 1013.6 |
| 20260506162544 | 71 | 200 | 8.0 | 13.0 | 0.00 | 0.00 | 0.00 | 66 | 1013.6 |
| 20260506161534 | 72 | 184 | 5.0 | 9.0 | 0.00 | 0.00 | 0.00 | 65 | 1013.6 |
| 20260506160524 | 72 | 134 | 6.0 | 13.0 | 0.00 | 0.00 | 0.00 | 65 | 1013.6 |
| 20260506155616 | 72 | 157 | 5.0 | 9.0 | 0.00 | 0.00 | 0.00 | 64 | 1013.9 |
| 20260506154625 | 73 | 149 | 5.0 | 9.0 | 0.00 | 0.00 | 0.00 | 64 | 1013.7 |
| 20260506153555 | 73 | 144 | 4.0 | 10.0 | 0.00 | 0.00 | 0.00 | 64 | 1013.7 |
| 20260506152605 | 73 | 130 | 5.0 | 10.0 | 0.00 | 0.00 | 0.00 | 63 | 1013.6 |
| 20260506151535 | 74 | 165 | 6.0 | 11.0 | 0.00 | 0.00 | 0.00 | 62 | 1013.6 |
| 20260506150525 | 74 | 112 | 5.0 | 10.0 | 0.00 | 0.00 | 0.00 | 62 | 1013.6 |
| 20260506145616 | 74 | 137 | 5.0 | 13.0 | 0.00 | 0.00 | 0.00 | 61 | 1013.5 |
| 20260506144606 | 75 | 155 | 4.0 | 10.0 | 0.00 | 0.00 | 0.00 | 60 | 1013.5 |
| 20260506143556 | 75 | 143 | 4.0 | 9.0 | 0.00 | 0.00 | 0.00 | 59 | 1013.8 |
| 20260506142546 | 75 | 119 | 5.0 | 9.0 | 0.00 | 0.00 | 0.00 | 59 | 1013.7 |
| 20260506141535 | 75 | 161 | 5.0 | 9.0 | 0.00 | 0.00 | 0.00 | 59 | 1013.8 |
| 20260506140525 | 75 | 161 | 5.0 | 10.0 | 0.00 | 0.00 | 0.00 | 60 | 1013.9 |
| 20260506135516 | 75 | 141 | 3.0 | 13.0 | 0.00 | 0.00 | 0.00 | 60 | 1013.8 |
| 20260506134607 | 74 | 167 | 6.0 | 14.0 | 0.00 | 0.00 | 0.00 | 60 | 1013.9 |
| 20260506133557 | 73 | 213 | 5.0 | 14.0 | 0.00 | 0.00 | 0.00 | 62 | 1014.1 |
| 20260506132607 | 74 | 154 | 5.0 | 11.0 | 0.00 | 0.00 | 0.00 | 61 | 1014.0 |
| 20260506131537 | 74 | 194 | 7.0 | 13.0 | 0.00 | 0.00 | 0.00 | 62 | 1014.3 |
| 20260506130527 | 74 | 197 | 6.0 | 11.0 | 0.00 | 0.00 | 0.00 | 62 | 1014.2 |
| 20260506125517 | 75 | 198 | 4.0 | 10.0 | 0.00 | 0.00 | 0.00 | 60 | 1014.3 |
| 20260506124608 | 74 | 148 | 4.0 | 7.0 | 0.00 | 0.00 | 0.00 | 61 | 1014.3 |
| 20260506123558 | 74 | 155 | 4.0 | 10.0 | 0.00 | 0.00 | 0.00 | 62 | 1014.4 |
| 20260506122548 | 73 | 168 | 5.0 | 8.0 | 0.00 | 0.00 | 0.00 | 62 | 1014.4 |
| 20260506121538 | 73 | 129 | 3.0 | 7.0 | 0.00 | 0.00 | 0.00 | 62 | 1014.5 |
| 20260506120528 | 73 | 166 | 5.0 | 9.0 | 0.00 | 0.00 | 0.00 | 63 | 1014.5 |
| 20260506115518 | 72 | 135 | 4.0 | 8.0 | 0.00 | 0.00 | 0.00 | 63 | 1014.4 |
| 20260506114630 | 73 | 145 | 4.0 | 9.0 | 0.00 | 0.00 | 0.00 | 63 | 1014.4 |
| 20260506113559 | 73 | 141 | 4.0 | 9.0 | 0.00 | 0.00 | 0.00 | 63 | 1014.5 |
| 20260506112549 | 73 | 172 | 4.0 | 9.0 | 0.00 | 0.00 | 0.00 | 63 | 1014.5 |
| 20260506111539 | 73 | 122 | 5.0 | 9.0 | 0.00 | 0.00 | 0.00 | 63 | 1014.4 |
| 20260506110529 | 73 | 124 | 4.0 | 8.0 | 0.00 | 0.00 | 0.00 | 62 | 1014.2 |
| 20260506105519 | 74 | 105 | 4.0 | 9.0 | 0.00 | 0.00 | 0.00 | 61 | 1014.3 |
| 20260506104610 | 74 | 167 | 4.0 | 7.0 | 0.00 | 0.00 | 0.00 | 58 | 1014.6 |
| 20260506103600 | 74 | 200 | 6.0 | 10.0 | 0.00 | 0.00 | 0.00 | 57 | 1014.7 |
| 20260506102550 | 74 | 189 | 4.0 | 11.0 | 0.00 | 0.00 | 0.00 | 58 | 1014.9 |
| 20260506101540 | 73 | 194 | 5.0 | 13.0 | 0.00 | 0.00 | 0.00 | 60 | 1015.0 |
| 20260506100550 | 74 | 211 | 6.0 | 10.0 | 0.00 | 0.00 | 0.00 | 60 | 1015.0 |
| 20260506095520 | 75 | 221 | 5.0 | 11.0 | 0.00 | 0.00 | 0.00 | 58 | 1015.0 |
| 20260506094611 | 76 | 193 | 6.0 | 11.0 | 0.00 | 0.00 | 0.00 | 55 | 1015.0 |
| 20260506093601 | 75 | 187 | 4.0 | 11.0 | 0.00 | 0.00 | 0.00 | 58 | 1015.0 |
| 20260506092551 | 75 | 212 | 6.0 | 14.0 | 0.00 | 0.00 | 0.00 | 56 | 1015.0 |
| 20260506091601 | 75 | 236 | 8.0 | 13.0 | 0.00 | 0.00 | 0.00 | 55 | 1015.0 |
| 20260506090531 | 76 | 232 | 5.0 | 10.0 | 0.00 | 0.00 | 0.00 | 55 | 1014.9 |
| 20260506085521 | 75 | 221 | 3.0 | 8.0 | 0.00 | 0.00 | 0.00 | 58 | 1014.8 |
| 20260506084612 | 73 | 223 | 6.0 | 11.0 | 0.00 | 0.00 | 0.00 | 61 | 1015.0 |
| 20260506083602 | 73 | 214 | 5.0 | 8.0 | 0.00 | 0.00 | 0.00 | 60 | 1014.8 |
| 20260506082552 | 73 | 213 | 3.0 | 7.0 | 0.00 | 0.00 | 0.00 | 61 | 1014.6 |
| 20260506081545 | 72 | 205 | 4.0 | 8.0 | 0.00 | 0.00 | 0.00 | 64 | 1014.6 |
| 20260506080532 | 71 | 197 | 6.0 | 10.0 | 0.00 | 0.00 | 0.00 | 66 | 1014.6 |
| 20260506072613 | 68 | 188 | 4.0 | 8.0 | 0.00 | 0.00 | 0.00 | 72 | 1014.6 |
| 20260506071543 | 68 | 166 | 4.0 | 7.0 | 0.00 | 0.00 | 0.00 | 73 | 1014.8 |
| 20260506070553 | 67 | 125 | 2.0 | 7.0 | 0.00 | 0.00 | 0.00 | 73 | 1014.9 |
| 20260506061544 | 66 | 227 | 2.0 | 4.0 | 0.00 | 0.00 | 0.00 | 75 | 1014.8 |
| 20260506060534 | 65 | 188 | 1.0 | 4.0 | 0.00 | 0.00 | 0.00 | 75 | 1014.8 |
| 20260506050534 | 61 | 0.0 | 1.0 | 0.00 | 0.00 | 0.00 | 84 | 1014.4 | |
| 20260506044616 | 60 | 225 | 1.0 | 2.0 | 0.00 | 0.00 | 0.00 | 85 | 1014.5 |
| 20260506043606 | 60 | 276 | 0.0 | 1.0 | 0.00 | 0.00 | 0.00 | 86 | 1014.6 |
| 20260506042556 | 60 | 228 | 1.0 | 2.0 | 0.00 | 0.00 | 0.00 | 86 | 1014.6 |
| 20260506041546 | 60 | 204 | 1.0 | 2.0 | 0.00 | 0.00 | 0.00 | 86 | 1014.4 |
| 20260506040536 | 60 | 186 | 1.0 | 3.0 | 0.00 | 0.00 | 0.00 | 86 | 1014.4 |
| 20260506035527 | 60 | 0.0 | 0.0 | 0.00 | 0.00 | 0.00 | 86 | 1014.4 | |
| 20260506034516 | 60 | 238 | 1.0 | 2.0 | 0.00 | 0.00 | 0.00 | 86 | 1014.4 |
| 20260506033607 | 60 | 214 | 1.0 | 2.0 | 0.00 | 0.00 | 0.00 | 85 | 1014.4 |
| 20260506032557 | 60 | 167 | 2.0 | 3.0 | 0.00 | 0.00 | 0.00 | 85 | 1014.4 |
| 20260506031547 | 60 | 0.0 | 0.0 | 0.00 | 0.00 | 0.00 | 85 | 1014.6 | |
| 20260506030537 | 60 | 268 | 1.0 | 1.0 | 0.00 | 0.00 | 0.00 | 85 | 1014.6 |
| 20260506025527 | 60 | 0.0 | 1.0 | 0.00 | 0.00 | 0.00 | 85 | 1014.7 | |
| 20260506024517 | 60 | 244 | 0.0 | 2.0 | 0.00 | 0.00 | 0.00 | 85 | 1014.7 |
| 20260506023608 | 60 | 222 | 1.0 | 3.0 | 0.00 | 0.00 | 0.00 | 85 | 1014.6 |
| 20260506022558 | 60 | 237 | 1.0 | 3.0 | 0.00 | 0.00 | 0.00 | 85 | 1014.7 |
| 20260506021548 | 60 | 248 | 1.0 | 2.0 | 0.00 | 0.00 | 0.00 | 85 | 1014.7 |
| 20260506020538 | 60 | 235 | 0.0 | 2.0 | 0.00 | 0.00 | 0.00 | 84 | 1014.8 |
| 20260506015528 | 61 | 0.0 | 0.0 | 0.00 | 0.00 | 0.00 | 84 | 1014.8 | |
| 20260506014517 | 60 | 0.0 | 0.0 | 0.00 | 0.00 | 0.00 | 85 | 1015.0 | |
| 20260506013608 | 61 | 0.0 | 0.0 | 0.00 | 0.00 | 0.00 | 85 | 1014.8 | |
| 20260506012559 | 61 | 0.0 | 0.0 | 0.00 | 0.00 | 0.00 | 85 | 1014.9 | |
| 20260506011548 | 61 | 0.0 | 0.0 | 0.00 | 0.00 | 0.00 | 84 | 1014.9 | |
| 20260506010538 | 62 | 0.0 | 0.0 | 0.00 | 0.00 | 0.00 | 84 | 1015.0 | |
| 20260506005528 | 62 | 0.0 | 0.0 | 0.00 | 0.00 | 0.00 | 84 | 1014.9 | |
| 20260506004519 | 62 | 0.0 | 0.0 | 0.00 | 0.00 | 0.00 | 83 | 1015.0 | |
| 20260506003610 | 62 | 266 | 1.0 | 1.0 | 0.00 | 0.00 | 0.00 | 83 | 1015.0 |
| 20260506002619 | 63 | 0.0 | 0.0 | 0.00 | 0.00 | 0.00 | 82 | 1015.0 |